Location: Hylvaty SDH
(49.9612°N, 16.4057°E)
Time: 12:30:28
(UTC+01:00)

Tiros 1 - Pass Details

Date: 03 October 2020
Orbit: 630 x 663 km, 48.4° (Epoch: 28 October)

Event Time Altitude Azimuth Distance (km) Brightness Sun altitude
Rises 15:43:27 0° 255° (WSW) 2,947 11.6 23.3°
Reaches altitude 10° 15:45:46 10° 253° (WSW) 2,043 11.1 23.0°
Maximum altitude 15:50:28 69° 171° (S) 697 7.9 22.5°
Drops below altitude 10° 15:55:12 10° 88° (E) 2,067 9.4 21.8°
Sets 15:57:34 0° 87° (E) 2,984 10.1 21.5°
